#timestamp,LO_Frequency,Hit,StdDev 
1590001215.1,286047001.6,N
1590001235.9,286046998.8,N
1590001255.7,286047002.7,N
1590001275.5,286046998.9,N
1590001295.4,286046996.8,N
1590001315.2,286046999.5,N
1590001335.1,286047000.7,N
1590001336.0,286047000.7,N
1590001355.8,286046999.2,N
1590001375.6,286046997.2,N
1590001395.5,286047000.8,N
1590001415.3,286047002.3,N
1590001435.1,286046999.7,N
1590001455.9,286047000.6,N
1590001475.7,286047000.4,N
1590001495.6,286047001.6,N
1590001515.4,286047002.6,N
1590001535.2,286047002.5,N
1590001555.1,286046999.9,N
1590001556.0,286046999.9,N
1590001575.8,286047000.0,N
1590001595.7,286046998.9,N
1590001615.5,286047000.4,N
1590001635.3,286047001.1,N
1590001655.2,286046999.5,N
1590001675.0,286047000.7,N
1590001675.9,286047000.7,N
1590001695.8,286046998.5,N
1590001715.6,286046999.2,N
1590001735.4,286047000.3,N
1590001755.3,286047001.0,N
1590001775.1,286047001.8,N
1590001795.9,286046999.8,N
1590001815.7,286046999.9,N
1590001835.5,286046996.8,N
1590001855.4,286046998.4,N
1590001875.2,286046999.8,N
1590001895.1,286047001.6,N
1590001896.0,286047001.6,N
1590001915.8,286047002.0,N
1590001935.6,286047002.0,N
1590001955.5,286047002.2,N
1590001975.3,286047002.4,N
1590001995.1,286047002.8,N
1590002015.9,286047002.5,N
1590002035.7,286047000.1,N
1590002055.6,286047000.7,N
1590002075.4,286047000.2,N
1590002095.2,286046998.1,N
1590002115.1,286047001.4,N
1590002116.0,286047001.4,N
1590002135.8,286047003.4,N
1590002155.7,286047001.6,N
1590002175.5,286047000.1,N
1590002195.3,286046999.3,N
1590002215.2,286046998.3,N
1590002235.0,286046998.2,N
1590002235.9,286046998.2,N
1590002255.8,286046996.7,N
1590002275.6,286046997.5,N
1590002295.4,286046995.5,N
1590002315.3,286046997.9,N
1590002335.1,286046994.9,N
1590002355.9,286046995.6,N
1590002375.7,286046997.8,N
1590002395.5,286046995.3,N
1590002415.4,286046997.1,N
1590002435.2,286046998.0,N
1590002455.0,286046996.1,N
1590002455.9,286046996.1,N
1590002475.8,286046995.8,N
1590002495.6,286046996.1,N
1590002515.5,286046995.8,N
1590002535.3,286046995.9,N
1590002555.1,286046993.3,N
1590002575.9,286046993.4,N
1590002595.7,286046995.8,N
1590002615.5,286046994.0,N
1590002635.4,286046995.3,N
1590002655.2,286046995.9,N
1590002675.1,286046995.4,N
1590002676.0,286046995.4,N
1590002695.8,286046998.0,N
1590002715.6,286046993.3,Y
1590002735.5,286046996.5,P
1590002755.3,286046999.7,P
1590002775.2,286047000.1,N
1590002795.9,286046998.1,N
1590002815.7,286047000.6,N
1590002835.6,286046998.8,N
1590002855.4,286046999.7,N
1590002875.2,286047000.9,N
1590002895.1,286047000.0,N
1590002896.0,286047000.0,N
1590002915.8,286046999.3,N
1590002935.7,286047000.2,N
1590002955.5,286047000.0,N
1590002975.3,286047002.5,N
1590002995.2,286047000.9,N
1590003015.0,286046998.8,N
1590003015.9,286046998.8,N
1590003035.8,286046998.1,N
1590003055.6,286047001.2,N
1590003075.4,286047000.5,N
1590003095.3,286047002.8,N
1590003115.1,286047002.7,N
1590003135.9,286046998.5,N
1590003155.7,286047002.8,N
1590003175.5,286047002.8,N
1590003195.4,286047001.6,N
1590003215.2,286047000.3,N
1590003235.0,286046999.0,N
1590003235.9,286046999.0,N
1590003255.8,286047013.4,Y
1590003275.6,286047014.0,P
1590003295.5,286047012.4,N
1590003315.3,286047006.2,N
1590003335.1,286047007.0,N
1590003355.9,286047005.8,N
1590003375.7,286047002.2,N
1590003395.6,286047000.3,N
1590003415.4,286047002.2,N
1590003435.2,286047002.4,N
1590003455.1,286047000.9,N
1590003456.0,286047000.9,N
1590003475.8,286047000.0,N
1590003495.6,286046999.8,N
1590003515.5,286047000.2,N
1590003535.3,286047003.3,N
1590003555.2,286047001.3,N
1590003575.9,286047000.3,N
1590003595.7,286047000.5,N
1590003615.6,286047002.3,N
1590003635.4,286047002.6,N
1590003655.3,286046999.8,N
1590003675.1,286046998.1,N
1590003676.0,286046998.1,N
1590003695.8,286046998.1,N
1590003715.7,286046999.0,N
1590003735.5,286046999.5,N
1590003755.3,286046998.9,N
1590003775.2,286047001.1,N
1590003795.0,286046998.1,N
1590003795.9,286046998.1,N
1590003815.8,286046998.2,N
1590003835.6,286047000.6,N
1590003855.4,286046998.1,N
1590003875.3,286046999.7,N
1590003895.1,286046999.9,N
1590003915.9,286047001.1,N
1590003935.7,286047000.7,N
1590003955.5,286047000.6,N
1590003975.4,286047001.1,N
1590003995.2,286046999.3,N
1590004015.1,286046999.5,N
1590004016.0,286046999.5,N
1590004035.8,286046998.4,N
1590004055.6,286047002.6,N
1590004075.5,286047001.5,N
1590004095.3,286047005.8,Y
1590004115.2,286047004.3,P
1590004135.0,286047002.8,N
1590004135.9,286047002.8,N
1590004155.7,286046998.6,N
1590004175.6,286047000.7,N
1590004195.4,286047002.1,N
1590004215.3,286047002.6,N
1590004235.1,286047004.4,N
1590004255.8,286046999.7,N
1590004275.7,286047000.6,N
1590004295.5,286046998.1,N
1590004315.4,286046999.9,N
1590004335.2,286047001.9,N
1590004355.0,286047000.1,N
1590004355.9,286047000.1,N
1590004375.8,286047002.4,N
1590004395.6,286047004.2,N
1590004415.4,286047001.4,N
1590004435.3,286047004.3,N
1590004455.1,286047004.1,N
1590004475.9,286047004.0,N
1590004495.7,286047004.2,N
1590004515.5,286047002.2,N
1590004535.4,286047002.8,N
1590004555.2,286047002.5,N
1590004575.1,286047004.0,N
1590004576.0,286047004.0,N
1590004595.8,286047004.3,N
1590004615.6,286047002.4,N
1590004635.5,286047002.4,N
1590004655.3,286047002.7,N
1590004675.2,286047000.1,N
1590004695.9,286047002.8,N
1590004715.7,286047004.1,N
1590004735.6,286047004.3,N
1590004755.4,286047001.6,N
1590004775.2,286047002.6,N
1590004795.1,286047000.4,N
1590004796.0,286047000.4,N
